Regional Weather Roundup
Issued by NWS

Home | Current Version | Previous Version | Text Only | Print | Product List | Glossary On
Versions: 1 2 3 4 5 6 7 8 9 10 11 12 13 14 15 16 17 18 19 20 21 22 23 24 25 26 27 28 29 30 31 32 33 34 35 36 37 38 39 40 41 42 43 44 45 46 47 48 49 50
000
ASUS43 KLMK 290002
RWRKY
KENTUCKY REGIONAL WEATHER ROUNDUP
NATIONAL WEATHER SERVICE LOUISVILLE KY
800 PM EDT FRI AUG 28 2015

NOTE "FAIR" INDICATES FEW OR NO CLOUDS BELOW 12,000 FEET
WITH NO SIGNIFICANT WEATHER AND/OR OBSTRUCTIONS TO VISIBILITY.

KYZ001>023-026-027-061>063-070>075-290100-
WESTERN AND SOUTH CENTRAL KENTUCKY

CITY           SKY/WX    TMP DP  RH WIND       PRES   REMARKS
PADUCAH        PTCLDY    81  66  60 NE3       30.02S
HENDERSON      PTCLDY    79  64  61 E3        30.03S
OWENSBORO      CLEAR     78  65  64 E6        30.05S
HOPKINSVILLE   NOT AVBL
BOWLING GREEN  MOCLDY    82  64  54 SE7       30.06S
GLASGOW        CLEAR     78  65  64 CALM      30.07S
$$

KYZ024-025-028>034-038-045-046-053-290100-
NORTH CENTRAL KENTUCKY

CITY           SKY/WX    TMP DP  RH WIND       PRES   REMARKS
LOUISVILLE/SDF MOCLDY    80  59  48 SE5       30.07S
LOUISVILLE/LOU CLEAR     81  58  45 CALM      30.08S
FORT KNOX      NOT AVBL
$$

KYZ035>037-039>044-047>052-055>060-089>105-290100-
NORTHEAST KENTUCKY

CITY           SKY/WX    TMP DP  RH WIND       PRES   REMARKS
LEXINGTON      CLEAR     77  62  59 NW3       30.11S
COVINGTON      PTCLDY    75  57  53 E5        30.11F
FRANKFORT      PTCLDY    79  61  53 NE5       30.09F
$$

KYZ054-064>069-076>088-106>120-290100-
SOUTHEAST KENTUCKY

CITY           SKY/WX    TMP DP  RH WIND       PRES   REMARKS
JACKSON        CLEAR     75  62  64 CALM      30.13F
LONDON         PTCLDY    78  63  59 NE3       30.11F
SOMERSET       NOT AVBL
MIDDLESBORO    CLEAR     74  65  73 CALM      30.12S
MONTICELLO     CLEAR     77  69  76 CALM      30.12S
$$



USA.gov is the U.S. government's official web portal to all federal, state and local government web resources and services.